DateTimeUTC,F1_A11,F1_S11,BsB_S11,BsG_S11,BsR_S11,BbsB_S11,BbsG_S11,BbsR_S11,BaB_A11,BaG_A11,BaR_A11,Tu_S11,T_S11,Uu_S11,U_S11,P_S11,T1_A11
2021-05-07T22:00:00Z,00000200,21000000,,,,,,,0000.21,0000.14,-000.12,18.0,25.3,01.3,00.8,0673.8,31.0
2021-05-07T22:01:00Z,00000200,21000000,,,,,,,-000.21,0000.02,0000.08,18.0,25.3,01.3,00.8,0673.8,31.0
2021-05-07T22:02:00Z,00000200,21000000,,,,,,,0000.21,-000.02,0000.27,18.0,25.3,01.3,00.8,0673.7,31.0
2021-05-07T22:03:00Z,00000200,61000000,,,,,,,0000.43,0000.44,0000.39,18.0,25.3,01.3,00.8,0673.7,31.0
2021-05-07T22:04:00Z,00000200,41000000,0000.27,-000.07,0000.08,0000.28,-000.15,0000.03,-000.29,0000.31,-000.26,18.2,25.1,01.3,00.8,0674.6,31.1
2021-05-07T22:05:00Z,00000200,01000000,0000.12,0000.09,0000.05,0000.20,-000.15,-000.24,0000.23,0000.20,0000.51,18.2,25.0,01.3,00.9,0674.7,31.0
2021-05-07T22:06:00Z,00000200,01000000,0000.56,0000.03,-000.02,0000.43,-000.15,-000.12,0000.44,0000.08,-000.01,18.2,25.0,01.3,00.9,0674.7,31.0
2021-05-07T22:07:00Z,00000200,01000000,0000.08,0000.13,-000.20,0000.11,-000.10,-000.22,-000.09,-000.19,-000.07,18.2,24.9,01.4,00.9,0674.7,31.0
2021-05-07T22:08:00Z,00000200,01000000,-000.20,-000.11,-000.04,0000.01,-000.02,-000.15,0000.54,0000.21,0000.10,18.2,24.9,01.5,01.0,0674.7,31.0
2021-05-07T22:09:00Z,00000200,01000000,-000.12,0000.17,-000.01,0000.78,-000.23,-000.06,-000.11,0000.31,0000.01,18.2,24.9,01.5,01.0,0674.7,31.0
2021-05-07T22:10:00Z,00000200,01000000,0000.09,0000.01,-000.12,-000.29,0000.01,0000.11,0000.18,-000.09,0000.17,18.2,24.9,01.5,01.0,0674.7,31.0
2021-05-07T22:11:00Z,00000200,01000000,0000.94,-000.22,-000.12,0000.15,-000.05,0000.34,0000.43,0000.38,0000.05,18.2,24.9,01.6,01.0,0674.7,31.0
2021-05-07T22:12:00Z,00000200,01000000,0000.05,-000.17,-000.04,-000.01,-000.24,-000.09,-000.05,0000.02,-000.23,18.1,24.9,01.6,01.0,0674.7,31.0
2021-05-07T22:13:00Z,00000200,01000000,0000.22,-000.16,-000.21,0000.22,-000.08,0000.17,-000.07,-000.28,0000.30,18.2,24.9,01.7,01.1,0674.7,31.0
2021-05-07T22:14:00Z,00000200,01000000,0000.29,0000.04,-000.13,0000.46,-000.07,-000.06,-000.20,0000.41,0000.14,18.1,24.8,01.6,01.1,0674.7,31.0
2021-05-07T22:15:00Z,00000200,01000000,0001.10,0000.09,-000.11,0000.01,-000.22,-000.02,-000.02,-000.49,-000.53,18.1,24.8,01.4,01.0,0674.7,31.0
2021-05-07T22:16:00Z,00000200,01000000,0000.59,-000.07,-000.28,-000.13,0000.03,-000.14,-000.00,0000.36,0000.62,18.1,24.8,01.5,01.0,0674.7,31.0
2021-05-07T22:17:00Z,00000200,01000000,0000.13,-000.32,-000.15,-000.69,0000.06,0000.13,0000.29,-000.15,-000.19,18.1,24.8,01.3,00.9,0674.7,31.0
2021-05-07T22:18:00Z,00000200,01000000,0000.23,0000.10,0000.02,0000.03,0000.03,0000.01,0000.10,0000.63,0000.06,18.1,24.8,01.5,01.0,0674.7,31.0
2021-05-07T22:19:00Z,00000200,01000000,0000.51,0000.07,0000.00,0000.02,-000.08,0000.14,0000.32,-000.18,0000.35,18.1,24.8,01.5,01.0,0674.7,31.0
2021-05-07T22:20:00Z,00000200,01000000,0000.03,-000.25,0000.08,0000.41,0000.03,0000.22,-000.22,0000.11,0000.12,18.1,24.8,01.5,01.0,0674.8,31.0
2021-05-07T22:21:00Z,00000200,01000000,-000.21,-000.23,0000.18,-000.13,-000.27,-000.44,0000.03,0000.02,-000.49,18.1,24.7,01.5,01.0,0674.8,31.0
2021-05-07T22:22:00Z,00000200,01000000,-000.40,-000.03,0000.11,-000.14,-000.17,0000.16,0000.18,-000.35,0000.24,18.1,24.7,01.4,00.9,0674.7,31.0
2021-05-07T22:23:00Z,00000200,01000000,-000.18,0000.26,0000.03,-000.01,-000.26,0000.00,0000.22,0000.39,0000.03,18.0,24.7,01.5,01.0,0674.7,31.0
2021-05-07T22:24:00Z,00000200,01000000,0000.11,-000.17,0000.21,0000.21,-000.01,0000.24,-000.35,0000.24,0000.08,18.0,24.7,01.4,00.9,0674.7,31.0
2021-05-07T22:25:00Z,00000200,01000000,0000.30,0000.14,-000.25,0000.81,-000.23,-000.17,0000.30,-000.00,0000.11,18.0,24.7,01.4,00.9,0674.7,31.0
2021-05-07T22:26:00Z,00000200,01000000,0000.27,-000.22,0000.23,0000.66,-000.05,0000.08,-000.18,-000.24,0000.01,18.1,24.7,01.4,00.9,0674.7,31.1
2021-05-07T22:27:00Z,00000200,01000000,-000.33,0000.22,-000.17,0000.27,-000.18,-000.18,0000.53,0000.47,0000.15,18.1,24.8,01.3,00.9,0674.7,31.1
2021-05-07T22:28:00Z,00000200,01000000,0000.45,-000.28,-000.27,0000.02,-000.08,-000.05,-000.27,-000.15,-000.13,18.2,24.8,01.4,00.9,0674.7,31.1
2021-05-07T22:29:00Z,00000200,01000000,0000.71,0000.11,0000.07,0000.06,-000.10,0000.13,0000.16,0000.42,0000.16,18.2,24.8,01.3,00.9,0674.7,31.1
2021-05-07T22:30:00Z,00000200,01000000,-000.08,-000.26,-000.42,0000.01,-000.09,-000.13,0000.11,-000.29,-000.00,18.3,24.8,01.2,00.8,0674.7,31.1
2021-05-07T22:31:00Z,00000200,01000000,0000.05,-000.41,0000.22,-000.05,-000.10,0000.29,-000.19,0000.20,-000.26,18.3,24.8,01.2,00.8,0674.7,31.1
2021-05-07T22:32:00Z,00000200,01000000,0000.38,-000.12,-000.15,0000.59,-000.22,-000.09,0000.53,-000.08,0000.47,18.2,24.8,01.2,00.8,0674.8,31.1
2021-05-07T22:33:00Z,00000200,01000000,-000.22,-000.19,-000.14,-000.24,-000.22,-000.07,-000.10,-000.23,-000.34,18.2,24.8,01.2,00.8,0674.8,31.1
2021-05-07T22:34:00Z,00000200,01000000,0000.12,0000.26,0000.03,0000.33,0000.04,0000.28,0000.15,0000.34,0000.17,18.2,24.8,01.2,00.8,0674.8,31.0
2021-05-07T22:35:00Z,00000200,01000000,0000.06,-000.07,0000.10,-000.13,-000.18,0000.11,-000.24,0000.07,-000.12,18.2,24.7,01.2,00.8,0674.8,31.1
2021-05-07T22:36:00Z,00000200,01000000,0000.23,-000.22,0000.01,-000.03,-000.20,-000.10,0000.28,-000.19,0000.14,18.2,24.8,01.2,00.8,0674.8,31.0
2021-05-07T22:37:00Z,00000200,01000000,-000.02,0000.33,-000.14,0000.44,-000.04,-000.23,-000.16,0000.30,0000.07,18.2,24.7,01.1,00.7,0674.8,31.0
2021-05-07T22:38:00Z,00000200,01000000,-000.18,-000.00,-000.28,0000.18,-000.11,-000.09,0000.32,0000.13,0000.32,18.2,24.7,01.1,00.7,0674.8,31.0
2021-05-07T22:39:00Z,00000200,01000000,-000.03,0000.07,-000.02,-000.13,-000.02,-000.36,0000.05,0000.05,-000.37,18.1,24.7,01.0,00.7,0674.8,31.0
2021-05-07T22:40:00Z,00000200,01000000,-000.18,0000.00,-000.18,0000.15,0000.03,-000.14,-000.19,-000.20,0000.19,18.1,24.7,01.1,00.7,0674.8,31.0
2021-05-07T22:41:00Z,00000200,01000000,0000.09,-000.11,0000.12,-000.59,-000.11,0000.06,0000.31,0000.31,0000.14,18.1,24.7,00.9,00.6,0674.8,31.0
2021-05-07T22:42:00Z,00000200,01000000,0000.43,-000.11,-000.21,-000.17,-000.03,-000.06,-000.07,-000.17,-000.12,18.1,24.7,01.1,00.7,0674.8,31.0
2021-05-07T22:43:00Z,00000200,01000000,-000.12,0000.08,-000.00,-000.04,-000.00,0000.04,-000.35,0000.10,-000.15,18.1,24.7,00.9,00.6,0674.8,31.0
2021-05-07T22:44:00Z,00000200,01000000,0000.08,-000.24,-000.00,0000.05,0000.04,-000.08,0000.16,-000.36,0000.05,18.1,24.7,01.0,00.6,0674.8,31.0
2021-05-07T22:45:00Z,00000200,01000000,-000.04,-000.11,-000.42,0000.19,-000.17,-000.28,-000.15,0000.12,-000.23,18.0,24.7,00.9,00.6,0674.8,31.0
2021-05-07T22:46:00Z,00000200,01000000,0000.00,-000.19,-000.10,0000.35,-000.17,-000.03,0000.20,0000.12,0000.14,18.0,24.6,00.9,00.6,0674.8,31.0
2021-05-07T22:47:00Z,00000200,01000000,0000.93,0000.05,-000.11,0000.19,-000.10,-000.09,-000.09,0000.06,0000.03,18.0,24.6,01.0,00.6,0674.7,31.0
2021-05-07T22:48:00Z,00000200,01000000,0000.01,-000.04,-000.18,-000.33,-000.12,-000.16,0000.20,0000.29,0000.11,18.0,24.6,01.0,00.6,0674.8,31.0
2021-05-07T22:49:00Z,00000200,01000000,-000.46,-000.10,0000.07,-000.19,0000.04,0000.16,0000.28,0000.05,-000.05,18.0,24.6,01.0,00.7,0674.7,31.0
2021-05-07T22:50:00Z,00000200,01000000,-000.05,0000.03,-000.01,0000.12,-000.03,0000.09,-000.05,0000.01,0000.27,18.0,24.6,01.1,00.7,0674.7,31.0
2021-05-07T22:51:00Z,00000200,01000000,-000.06,-000.20,0000.12,0000.05,0000.05,0000.00,0000.20,-000.19,-000.10,17.9,24.6,01.1,00.7,0674.7,31.0
2021-05-07T22:52:00Z,00000200,01000000,0000.56,-000.34,0000.07,0000.81,0000.07,0000.01,-000.02,0000.17,0000.27,17.9,24.5,01.1,00.7,0674.7,31.0
2021-05-07T22:53:00Z,00000200,01000000,0000.34,0000.02,-000.37,0000.29,-000.09,0000.08,0000.15,-000.02,-000.10,17.9,24.5,01.1,00.7,0674.7,31.0
2021-05-07T22:54:00Z,00000200,01000000,0000.18,-000.32,0000.06,0000.32,-000.03,0000.15,-000.24,-000.09,-000.06,17.9,24.5,01.0,00.7,0674.7,31.0
2021-05-07T22:55:00Z,00000200,01000000,0000.60,-000.01,-000.10,0000.50,0000.05,0000.34,0000.15,0000.33,0000.04,17.9,24.5,01.0,00.7,0674.7,31.0
2021-05-07T22:56:00Z,00000200,01000000,0000.47,-000.13,0000.03,0000.24,-000.27,0000.08,-000.35,-000.32,0000.11,17.9,24.5,00.9,00.6,0674.7,31.0
2021-05-07T22:57:00Z,00000200,41000000,,,,,,,0000.63,0000.42,0000.10,17.9,24.5,00.3,00.2,0674.8,31.0
2021-05-07T22:58:00Z,00000200,61000000,,,,,,,-000.31,-000.41,-000.48,17.5,24.7,00.7,00.5,0673.7,31.0
2021-05-07T22:59:00Z,00000200,21000000,,,,,,,0000.06,0000.03,0000.51,17.5,24.8,00.6,00.4,0673.7,31.0
